Location: *
(48.8489°N, 2.3218°E)
Time: 18:57:26
(UTC+00:00)

CZ-2C R/B - Pass Details

Date: 23 August 2019
Orbit: 785 x 870 km, 98.3° (Epoch: 14 October)

Event Time Altitude Azimuth Distance (km) Brightness Sun altitude
Rises 20:10:58 0° 21° (NNE) 3,321 6.0 -12.5°
Reaches altitude 10° 20:13:32 10° 31° (NNE) 2,397 5.1 -12.9°
Maximum altitude 20:18:17 33° 95° (E) 1,358 3.3 -13.5°
Enters shadow 20:21:31 18° 148° (SSE) 1,923 4.0 -13.9°
